Year,Month,Day,Hour,Minute,Value (Times are PST for temperature in C)
2009,05,21,00,00,7.20
2009,05,21,00,01,7.20
2009,05,21,00,02,7.10
2009,05,21,00,03,7.10
2009,05,21,00,04,7.10
2009,05,21,00,05,7.10
2009,05,21,00,06,7.10
2009,05,21,00,07,7.00
2009,05,21,00,08,7.00
2009,05,21,00,09,7.00
2009,05,21,00,10,6.90
2009,05,21,00,11,6.90
2009,05,21,00,12,6.90
2009,05,21,00,13,6.90
2009,05,21,00,14,6.90
2009,05,21,00,15,6.90
2009,05,21,00,16,6.90
2009,05,21,00,17,6.80
2009,05,21,00,18,6.80
2009,05,21,00,19,6.80
2009,05,21,00,20,6.80
2009,05,21,00,21,6.80
2009,05,21,00,22,6.80
2009,05,21,00,23,6.80
2009,05,21,00,24,6.80
2009,05,21,00,25,6.70
2009,05,21,00,26,6.70
2009,05,21,00,27,6.70
2009,05,21,00,28,6.70
2009,05,21,00,29,6.60
2009,05,21,00,30,6.60
2009,05,21,00,31,6.60
2009,05,21,00,32,6.60
2009,05,21,00,33,6.50
2009,05,21,00,34,6.50
2009,05,21,00,35,6.50
2009,05,21,00,36,6.40
2009,05,21,00,37,6.40
2009,05,21,00,38,6.40
2009,05,21,00,39,6.40
2009,05,21,00,40,6.40
2009,05,21,00,41,6.30
2009,05,21,00,42,6.30
2009,05,21,00,43,6.30
2009,05,21,00,44,6.30
2009,05,21,00,45,6.30
2009,05,21,00,46,6.30
2009,05,21,00,47,6.30
2009,05,21,00,48,6.30
2009,05,21,00,49,6.20
2009,05,21,00,50,6.20
2009,05,21,00,51,6.20
2009,05,21,00,52,6.20
2009,05,21,00,53,6.20
2009,05,21,00,54,6.10
2009,05,21,00,55,6.10
2009,05,21,00,56,6.10
2009,05,21,00,57,6.10
2009,05,21,00,58,6.10
2009,05,21,00,59,6.00
2009,05,21,01,00,6.00
2009,05,21,01,01,6.00
2009,05,21,01,02,6.00
2009,05,21,01,03,5.90
2009,05,21,01,04,5.90
2009,05,21,01,05,5.90
2009,05,21,01,06,5.90
2009,05,21,01,07,5.90
2009,05,21,01,08,5.90
2009,05,21,01,09,5.90
2009,05,21,01,10,5.80
2009,05,21,01,11,5.80
2009,05,21,01,12,5.80
2009,05,21,01,13,5.80
2009,05,21,01,14,5.80
2009,05,21,01,15,5.80
2009,05,21,01,16,5.80
2009,05,21,01,17,5.80
2009,05,21,01,18,5.80
2009,05,21,01,19,5.80
2009,05,21,01,20,5.80
2009,05,21,01,21,5.80
2009,05,21,01,22,5.70
2009,05,21,01,23,5.70
2009,05,21,01,24,5.70
2009,05,21,01,25,5.70
2009,05,21,01,26,5.70
2009,05,21,01,27,5.70
2009,05,21,01,28,5.70
2009,05,21,01,29,5.70
2009,05,21,01,30,5.70
2009,05,21,01,31,5.60
2009,05,21,01,32,5.60
2009,05,21,01,33,5.60
2009,05,21,01,34,5.60
2009,05,21,01,35,5.60
2009,05,21,01,36,5.60
2009,05,21,01,37,5.60
2009,05,21,01,38,5.60
2009,05,21,01,39,5.60
2009,05,21,01,40,5.60
2009,05,21,01,41,5.60
2009,05,21,01,42,5.50
2009,05,21,01,43,5.60
2009,05,21,01,44,5.60
2009,05,21,01,45,5.60
2009,05,21,01,46,5.60
2009,05,21,01,47,5.60
2009,05,21,01,48,5.60
2009,05,21,01,49,5.60
2009,05,21,01,50,5.50
2009,05,21,01,51,5.50
2009,05,21,01,52,5.50
2009,05,21,01,53,5.50
2009,05,21,01,54,5.60
2009,05,21,01,55,5.50
2009,05,21,01,56,5.50
2009,05,21,01,57,5.50
2009,05,21,01,58,5.50
2009,05,21,01,59,5.50
2009,05,21,02,00,5.50
2009,05,21,02,01,5.50
2009,05,21,02,02,5.50
2009,05,21,02,03,5.50
2009,05,21,02,04,5.40
2009,05,21,02,05,5.40
2009,05,21,02,06,5.40
2009,05,21,02,07,5.40
2009,05,21,02,08,5.40
2009,05,21,02,09,5.40
2009,05,21,02,10,5.40
2009,05,21,02,11,5.30
2009,05,21,02,12,5.30
2009,05,21,02,13,5.30
2009,05,21,02,14,5.30
2009,05,21,02,15,5.30
2009,05,21,02,16,5.30
2009,05,21,02,17,5.30
2009,05,21,02,18,5.30
2009,05,21,02,19,5.30
2009,05,21,02,20,5.30
2009,05,21,02,21,5.30
2009,05,21,02,22,5.30
2009,05,21,02,23,5.30
2009,05,21,02,24,5.30
2009,05,21,02,25,5.40
2009,05,21,02,26,5.30
2009,05,21,02,27,5.30
2009,05,21,02,28,5.30
2009,05,21,02,29,5.30
2009,05,21,02,30,5.30
2009,05,21,02,31,5.30
2009,05,21,02,32,5.30
2009,05,21,02,33,5.30
2009,05,21,02,34,5.30
2009,05,21,02,35,5.30
2009,05,21,02,36,5.30
2009,05,21,02,37,5.30
2009,05,21,02,38,5.30
2009,05,21,02,39,5.30
2009,05,21,02,40,5.30
2009,05,21,02,41,5.30
2009,05,21,02,42,5.30
2009,05,21,02,43,5.30
2009,05,21,02,44,5.30
2009,05,21,02,45,5.20
2009,05,21,02,46,5.20
2009,05,21,02,47,5.20
2009,05,21,02,48,5.20
2009,05,21,02,49,5.30
2009,05,21,02,50,5.30
2009,05,21,02,51,5.30
2009,05,21,02,52,5.30
2009,05,21,02,53,5.30
2009,05,21,02,54,5.30
2009,05,21,02,55,5.30
2009,05,21,02,56,5.30
2009,05,21,02,57,5.30
2009,05,21,02,58,5.30
2009,05,21,02,59,5.30
2009,05,21,03,00,5.30
2009,05,21,03,01,5.30
2009,05,21,03,02,5.30
2009,05,21,03,03,5.30
2009,05,21,03,04,5.30
2009,05,21,03,05,5.30
2009,05,21,03,06,5.40
2009,05,21,03,07,5.30
2009,05,21,03,08,5.30
2009,05,21,03,09,5.30
2009,05,21,03,10,5.30
2009,05,21,03,11,5.20
2009,05,21,03,12,5.20
2009,05,21,03,13,5.30
2009,05,21,03,14,5.30
2009,05,21,03,15,5.30
2009,05,21,03,16,5.30
2009,05,21,03,17,5.30
2009,05,21,03,18,5.30
2009,05,21,03,19,5.30
2009,05,21,03,20,5.30
2009,05,21,03,21,5.20
2009,05,21,03,22,5.20
2009,05,21,03,23,5.20
2009,05,21,03,24,5.30
2009,05,21,03,25,5.30
2009,05,21,03,26,5.30
2009,05,21,03,27,5.20
2009,05,21,03,28,5.20
2009,05,21,03,29,5.20
2009,05,21,03,30,5.20
2009,05,21,03,31,5.20
2009,05,21,03,32,5.20
2009,05,21,03,33,5.10
2009,05,21,03,34,5.10
2009,05,21,03,35,5.10
2009,05,21,03,36,5.10
2009,05,21,03,37,5.10
2009,05,21,03,38,5.10
2009,05,21,03,39,5.10
2009,05,21,03,40,5.10
2009,05,21,03,41,5.10
2009,05,21,03,42,5.10
2009,05,21,03,43,5.10
2009,05,21,03,44,5.10
2009,05,21,03,45,5.10
2009,05,21,03,46,5.10
2009,05,21,03,47,5.10
2009,05,21,03,48,5.10
2009,05,21,03,49,5.10
2009,05,21,03,50,5.10
2009,05,21,03,51,5.10
2009,05,21,03,52,5.10
2009,05,21,03,53,5.10
2009,05,21,03,54,5.10
2009,05,21,03,55,5.10
2009,05,21,03,56,5.10
2009,05,21,03,57,5.10
2009,05,21,03,58,5.10
2009,05,21,03,59,5.00
2009,05,21,04,00,5.00
2009,05,21,04,01,5.10
2009,05,21,04,02,5.00
2009,05,21,04,03,5.00
2009,05,21,04,04,5.00
2009,05,21,04,05,5.00
2009,05,21,04,06,4.90
2009,05,21,04,07,4.90
2009,05,21,04,08,4.90
2009,05,21,04,09,4.90
2009,05,21,04,10,4.90
2009,05,21,04,11,4.90
2009,05,21,04,12,4.90
2009,05,21,04,13,4.90
2009,05,21,04,14,4.90
2009,05,21,04,15,4.90
2009,05,21,04,16,4.90
2009,05,21,04,17,4.90
2009,05,21,04,18,4.90
2009,05,21,04,19,4.90
2009,05,21,04,20,4.90
2009,05,21,04,21,4.90
2009,05,21,04,22,4.90
2009,05,21,04,23,5.00
2009,05,21,04,24,4.90
2009,05,21,04,25,4.90
2009,05,21,04,26,4.90
2009,05,21,04,27,4.90
2009,05,21,04,28,4.90
2009,05,21,04,29,4.90
2009,05,21,04,30,4.90
2009,05,21,04,31,4.90
2009,05,21,04,32,4.80
2009,05,21,04,33,4.90
2009,05,21,04,34,4.90
2009,05,21,04,35,4.90
2009,05,21,04,36,4.90
2009,05,21,04,37,4.90
2009,05,21,04,38,4.90
2009,05,21,04,39,4.90
2009,05,21,04,40,4.80
2009,05,21,04,41,4.80
2009,05,21,04,42,4.80
2009,05,21,04,43,4.80
2009,05,21,04,44,4.80
2009,05,21,04,45,4.80
2009,05,21,04,46,4.80
2009,05,21,04,47,4.80
2009,05,21,04,48,4.80
2009,05,21,04,49,4.70
2009,05,21,04,50,4.70
2009,05,21,04,51,4.70
2009,05,21,04,52,4.70
2009,05,21,04,53,4.70
2009,05,21,04,54,4.70
2009,05,21,04,55,4.70
2009,05,21,04,56,4.70
2009,05,21,04,57,4.70
2009,05,21,04,58,4.70
2009,05,21,04,59,4.70
2009,05,21,05,00,4.70
2009,05,21,05,01,4.70
2009,05,21,05,02,4.70
2009,05,21,05,03,4.70
2009,05,21,05,04,4.70
2009,05,21,05,05,4.70
2009,05,21,05,06,4.70
2009,05,21,05,07,4.60
2009,05,21,05,08,4.60
2009,05,21,05,09,4.60
2009,05,21,05,10,4.60
2009,05,21,05,11,4.60
2009,05,21,05,12,4.60
2009,05,21,05,13,4.60
2009,05,21,05,14,4.60
2009,05,21,05,15,4.60
2009,05,21,05,16,4.60
2009,05,21,05,17,4.70
2009,05,21,05,18,4.70
2009,05,21,05,19,4.70
2009,05,21,05,20,4.70
2009,05,21,05,21,4.70
2009,05,21,05,22,4.70
2009,05,21,05,23,4.70
2009,05,21,05,24,4.70
2009,05,21,05,25,4.70
2009,05,21,05,26,4.70
2009,05,21,05,27,4.70
2009,05,21,05,28,4.70
2009,05,21,05,29,4.70
2009,05,21,05,30,4.70
2009,05,21,05,31,4.70
2009,05,21,05,32,4.70
2009,05,21,05,33,4.70
2009,05,21,05,34,4.80
2009,05,21,05,35,4.80
2009,05,21,05,36,4.80
2009,05,21,05,37,4.70
2009,05,21,05,38,4.70
2009,05,21,05,39,4.70
2009,05,21,05,40,4.70
2009,05,21,05,41,4.70
2009,05,21,05,42,4.70
2009,05,21,05,43,4.70
2009,05,21,05,44,4.70
2009,05,21,05,45,4.70
2009,05,21,05,46,4.70
2009,05,21,05,47,4.70
2009,05,21,05,48,4.70
2009,05,21,05,49,4.70
2009,05,21,05,50,4.70
2009,05,21,05,51,4.80
2009,05,21,05,52,4.80
2009,05,21,05,53,4.80
2009,05,21,05,54,4.80
2009,05,21,05,55,4.80
2009,05,21,05,56,4.80
2009,05,21,05,57,4.80
2009,05,21,05,58,4.70
2009,05,21,05,59,4.70
2009,05,21,06,00,4.70
2009,05,21,06,01,4.70
2009,05,21,06,02,4.70
2009,05,21,06,03,4.70
2009,05,21,06,04,4.70
2009,05,21,06,05,4.70
2009,05,21,06,06,4.70
2009,05,21,06,07,4.70
2009,05,21,06,08,4.70
2009,05,21,06,09,4.70
2009,05,21,06,10,4.70
2009,05,21,06,11,4.80
2009,05,21,06,12,4.70
2009,05,21,06,13,4.70
2009,05,21,06,14,4.70
2009,05,21,06,15,4.70
2009,05,21,06,16,4.70
2009,05,21,06,17,4.70
2009,05,21,06,18,4.70
2009,05,21,06,19,4.70
2009,05,21,06,20,4.80
2009,05,21,06,21,4.80
2009,05,21,06,22,4.80
2009,05,21,06,23,4.80
2009,05,21,06,24,4.80
2009,05,21,06,25,4.80
2009,05,21,06,26,4.80
2009,05,21,06,27,4.80
2009,05,21,06,28,4.90
2009,05,21,06,29,4.90
2009,05,21,06,30,4.90
2009,05,21,06,31,4.90
2009,05,21,06,32,4.90
2009,05,21,06,33,4.90
2009,05,21,06,34,4.90
2009,05,21,06,35,4.90
2009,05,21,06,36,4.90
2009,05,21,06,37,5.00
2009,05,21,06,38,5.00
2009,05,21,06,39,5.00
2009,05,21,06,40,5.00
2009,05,21,06,41,5.00
2009,05,21,06,42,5.00
2009,05,21,06,43,5.10
2009,05,21,06,44,5.10
2009,05,21,06,45,5.10
2009,05,21,06,46,5.10
2009,05,21,06,47,5.10
2009,05,21,06,48,5.10
2009,05,21,06,49,5.10
2009,05,21,06,50,5.10
2009,05,21,06,51,5.10
2009,05,21,06,52,5.10
2009,05,21,06,53,5.10
2009,05,21,06,54,5.20
2009,05,21,06,55,5.20
2009,05,21,06,56,5.20
2009,05,21,06,57,5.20
2009,05,21,06,58,5.20
2009,05,21,06,59,5.20
2009,05,21,07,00,5.30
2009,05,21,07,01,5.30
2009,05,21,07,02,5.30
2009,05,21,07,03,5.30
2009,05,21,07,04,5.40
2009,05,21,07,05,5.40
2009,05,21,07,06,5.40
2009,05,21,07,07,5.40
2009,05,21,07,08,5.50
2009,05,21,07,09,5.60
2009,05,21,07,10,5.60
2009,05,21,07,11,5.60
2009,05,21,07,12,5.70
2009,05,21,07,13,5.70
2009,05,21,07,14,5.70
2009,05,21,07,15,5.70
2009,05,21,07,16,5.70
2009,05,21,07,17,5.80
2009,05,21,07,18,5.80
2009,05,21,07,19,5.90
2009,05,21,07,20,6.00
2009,05,21,07,21,6.10
2009,05,21,07,22,6.20
2009,05,21,07,23,6.30
2009,05,21,07,24,6.30
2009,05,21,07,25,6.40
2009,05,21,07,26,6.40
2009,05,21,07,27,6.40
2009,05,21,07,28,6.40
2009,05,21,07,29,6.40
2009,05,21,07,30,6.40
2009,05,21,07,31,6.50
2009,05,21,07,32,6.50
2009,05,21,07,33,6.50
2009,05,21,07,34,6.60
2009,05,21,07,35,6.60
2009,05,21,07,36,6.60
2009,05,21,07,37,6.60
2009,05,21,07,38,6.70
2009,05,21,07,39,6.80
2009,05,21,07,40,6.80
2009,05,21,07,41,6.80
2009,05,21,07,42,6.90
2009,05,21,07,43,7.00
2009,05,21,07,44,7.00
2009,05,21,07,45,7.10
2009,05,21,07,46,7.10
2009,05,21,07,47,7.20
2009,05,21,07,48,7.20
2009,05,21,07,49,7.20
2009,05,21,07,50,7.20
2009,05,21,07,51,7.20
2009,05,21,07,52,7.30
2009,05,21,07,53,7.30
2009,05,21,07,54,7.40
2009,05,21,07,55,7.40
2009,05,21,07,56,7.40
2009,05,21,07,57,7.50
2009,05,21,07,58,7.40
2009,05,21,07,59,7.50
2009,05,21,08,00,7.50
2009,05,21,08,01,7.50
2009,05,21,08,02,7.60
2009,05,21,08,03,7.60
2009,05,21,08,04,7.60
2009,05,21,08,05,7.70
2009,05,21,08,06,7.70
2009,05,21,08,07,7.70
2009,05,21,08,08,7.80
2009,05,21,08,09,7.80
2009,05,21,08,10,7.80
2009,05,21,08,11,7.90
2009,05,21,08,12,7.90
2009,05,21,08,13,8.00
2009,05,21,08,14,8.10
2009,05,21,08,15,8.20
2009,05,21,08,16,8.30
2009,05,21,08,17,8.30
2009,05,21,08,18,8.40
2009,05,21,08,19,8.50
2009,05,21,08,20,8.50
2009,05,21,08,21,8.60
2009,05,21,08,22,8.70
2009,05,21,08,23,8.80
2009,05,21,08,24,8.80
2009,05,21,08,25,8.90
2009,05,21,08,26,9.00
2009,05,21,08,27,9.10
2009,05,21,08,28,9.20
2009,05,21,08,29,9.30
2009,05,21,08,30,9.40
2009,05,21,08,31,9.50
2009,05,21,08,32,9.60
2009,05,21,08,33,9.70
2009,05,21,08,34,9.70
2009,05,21,08,35,9.80
2009,05,21,08,36,9.80
2009,05,21,08,37,9.90
2009,05,21,08,38,10.00
2009,05,21,08,39,10.10
2009,05,21,08,40,10.20
2009,05,21,08,41,10.20
2009,05,21,08,42,10.30
2009,05,21,08,43,10.50
2009,05,21,08,44,10.50
2009,05,21,08,45,10.60
2009,05,21,08,46,10.60
2009,05,21,08,47,10.70
2009,05,21,08,48,10.80
2009,05,21,08,49,10.80
2009,05,21,08,50,10.90
2009,05,21,08,51,10.90
2009,05,21,08,52,11.00
2009,05,21,08,53,11.00
2009,05,21,08,54,11.10
2009,05,21,08,55,11.10
2009,05,21,08,56,11.20
2009,05,21,08,57,11.20
2009,05,21,08,58,11.20
2009,05,21,08,59,11.30
2009,05,21,09,00,11.30
2009,05,21,09,01,11.30
2009,05,21,09,02,11.40
2009,05,21,09,03,11.40
2009,05,21,09,04,11.40
2009,05,21,09,05,11.50
2009,05,21,09,06,11.50
2009,05,21,09,07,11.60
2009,05,21,09,08,11.60
2009,05,21,09,09,11.70
2009,05,21,09,10,11.70
2009,05,21,09,11,11.70
2009,05,21,09,12,11.70
2009,05,21,09,13,11.80
2009,05,21,09,14,11.80
2009,05,21,09,15,11.80
2009,05,21,09,16,11.80
2009,05,21,09,17,11.80
2009,05,21,09,18,11.80
2009,05,21,09,19,11.80
2009,05,21,09,20,11.80
2009,05,21,09,21,11.80
2009,05,21,09,22,11.80
2009,05,21,09,23,11.80
2009,05,21,09,24,11.70
2009,05,21,09,25,11.70
2009,05,21,09,26,11.70
2009,05,21,09,27,11.70
2009,05,21,09,28,11.70
2009,05,21,09,29,11.70
2009,05,21,09,30,11.70
2009,05,21,09,31,11.70
2009,05,21,09,32,11.70
2009,05,21,09,33,11.80
2009,05,21,09,34,11.80
2009,05,21,09,35,11.90
2009,05,21,09,36,12.00
2009,05,21,09,37,12.10
2009,05,21,09,38,12.20
2009,05,21,09,39,12.20
2009,05,21,09,40,12.30
2009,05,21,09,41,12.30
2009,05,21,09,42,12.30
2009,05,21,09,43,12.30
2009,05,21,09,44,12.40
2009,05,21,09,45,12.50
2009,05,21,09,46,12.50
2009,05,21,09,47,12.60
2009,05,21,09,48,12.60
2009,05,21,09,49,12.60
2009,05,21,09,50,12.60
2009,05,21,09,51,12.60
2009,05,21,09,52,12.60
2009,05,21,09,53,12.60
2009,05,21,09,54,12.70
2009,05,21,09,55,12.80
2009,05,21,09,56,12.80
2009,05,21,09,57,12.80
2009,05,21,09,58,12.80
2009,05,21,09,59,12.80
2009,05,21,10,00,12.80
2009,05,21,10,01,12.90
2009,05,21,10,02,12.90
2009,05,21,10,03,13.00
2009,05,21,10,04,13.10
2009,05,21,10,05,13.10
2009,05,21,10,06,13.20
2009,05,21,10,07,13.10
2009,05,21,10,08,13.10
2009,05,21,10,09,13.10
2009,05,21,10,10,13.10
2009,05,21,10,11,13.10
2009,05,21,10,12,13.10
2009,05,21,10,13,13.20
2009,05,21,10,14,13.30
2009,05,21,10,15,13.40
2009,05,21,10,16,13.50
2009,05,21,10,17,13.50
2009,05,21,10,18,13.60
2009,05,21,10,19,13.60
2009,05,21,10,20,13.70
2009,05,21,10,21,13.80
2009,05,21,10,22,13.80
2009,05,21,10,23,13.80
2009,05,21,10,24,13.70
2009,05,21,10,25,13.60
2009,05,21,10,26,13.60
2009,05,21,10,27,13.60
2009,05,21,10,28,13.70
2009,05,21,10,29,13.70
2009,05,21,10,30,13.70
2009,05,21,10,31,13.70
2009,05,21,10,32,13.70
2009,05,21,10,33,13.80
2009,05,21,10,34,13.70
2009,05,21,10,35,13.80
2009,05,21,10,36,13.80
2009,05,21,10,37,13.80
2009,05,21,10,38,13.90
2009,05,21,10,39,14.00
2009,05,21,10,40,14.00
2009,05,21,10,41,14.10
2009,05,21,10,42,14.10
2009,05,21,10,43,14.00
2009,05,21,10,44,13.90
2009,05,21,10,45,13.90
2009,05,21,10,46,13.90
2009,05,21,10,47,13.80
2009,05,21,10,48,13.80
2009,05,21,10,49,13.80
2009,05,21,10,50,13.80
2009,05,21,10,51,13.90
2009,05,21,10,52,13.90
2009,05,21,10,53,13.90
2009,05,21,10,54,13.90
2009,05,21,10,55,13.90
2009,05,21,10,56,13.80
2009,05,21,10,57,13.80
2009,05,21,10,58,13.70
2009,05,21,10,59,13.70
2009,05,21,11,00,13.80
2009,05,21,11,01,13.80
2009,05,21,11,02,13.80
2009,05,21,11,03,13.80
2009,05,21,11,04,13.80
2009,05,21,11,05,13.80
2009,05,21,11,06,13.80
2009,05,21,11,07,13.70
2009,05,21,11,08,13.70
2009,05,21,11,09,13.60
2009,05,21,11,10,13.60
2009,05,21,11,11,13.50
2009,05,21,11,12,13.60
2009,05,21,11,13,13.60
2009,05,21,11,14,13.60
2009,05,21,11,15,13.50
2009,05,21,11,16,13.50
2009,05,21,11,17,13.50
2009,05,21,11,18,13.40
2009,05,21,11,19,13.50
2009,05,21,11,20,13.60
2009,05,21,11,21,13.70
2009,05,21,11,22,13.80
2009,05,21,11,23,13.80
2009,05,21,11,24,13.80
2009,05,21,11,25,13.80
2009,05,21,11,26,13.80
2009,05,21,11,27,13.80
2009,05,21,11,28,13.80
2009,05,21,11,29,13.80
2009,05,21,11,30,13.80
2009,05,21,11,31,13.80
2009,05,21,11,32,13.80
2009,05,21,11,33,13.80
2009,05,21,11,34,13.90
2009,05,21,11,35,13.80
2009,05,21,11,36,13.80
2009,05,21,11,37,13.80
2009,05,21,11,38,13.90
2009,05,21,11,39,13.80
2009,05,21,11,40,13.70
2009,05,21,11,41,13.70
2009,05,21,11,42,13.70
2009,05,21,11,43,13.70
2009,05,21,11,44,13.80
2009,05,21,11,45,13.80
2009,05,21,11,46,13.80
2009,05,21,11,47,13.80
2009,05,21,11,48,13.70
2009,05,21,11,49,13.60
2009,05,21,11,50,13.60
2009,05,21,11,51,13.60
2009,05,21,11,52,13.60
2009,05,21,11,53,13.70
2009,05,21,11,54,13.80
2009,05,21,11,55,13.90
2009,05,21,11,56,13.90
2009,05,21,11,57,14.00
2009,05,21,11,58,14.10
2009,05,21,11,59,14.20
2009,05,21,12,00,14.20
2009,05,21,12,01,14.10
2009,05,21,12,02,14.00
2009,05,21,12,03,13.90
2009,05,21,12,04,13.80
2009,05,21,12,05,13.70
2009,05,21,12,06,13.70
2009,05,21,12,07,13.70
2009,05,21,12,08,13.80
2009,05,21,12,09,13.80
2009,05,21,12,10,13.80
2009,05,21,12,11,13.80
2009,05,21,12,12,13.70
2009,05,21,12,13,13.70
2009,05,21,12,14,13.60
2009,05,21,12,15,13.70
2009,05,21,12,16,13.70
2009,05,21,12,17,13.70
2009,05,21,12,18,13.70
2009,05,21,12,19,13.70
2009,05,21,12,20,13.70
2009,05,21,12,21,13.70
2009,05,21,12,22,13.70
2009,05,21,12,23,13.70
2009,05,21,12,24,13.60
2009,05,21,12,25,13.60
2009,05,21,12,26,13.70
2009,05,21,12,27,13.80
2009,05,21,12,28,13.90
2009,05,21,12,29,13.90
2009,05,21,12,30,13.90
2009,05,21,12,31,13.90
2009,05,21,12,32,13.90
2009,05,21,12,33,14.00
2009,05,21,12,34,14.00
2009,05,21,12,35,14.10
2009,05,21,12,36,14.10
2009,05,21,12,37,14.20
2009,05,21,12,38,14.10
2009,05,21,12,39,14.20
2009,05,21,12,40,14.20
2009,05,21,12,41,14.20
2009,05,21,12,42,14.30
2009,05,21,12,43,14.30
2009,05,21,12,44,14.30
2009,05,21,12,45,14.40
2009,05,21,12,46,14.50
2009,05,21,12,47,14.60
2009,05,21,12,48,14.70
2009,05,21,12,49,14.90
2009,05,21,12,50,14.90
2009,05,21,12,51,14.90
2009,05,21,12,52,14.90
2009,05,21,12,53,14.80
2009,05,21,12,54,14.80
2009,05,21,12,55,14.80
2009,05,21,12,56,14.90
2009,05,21,12,57,14.90
2009,05,21,12,58,15.00
2009,05,21,12,59,15.00
2009,05,21,13,00,14.90
2009,05,21,13,01,14.80
2009,05,21,13,02,14.70
2009,05,21,13,03,14.70
2009,05,21,13,04,14.60
2009,05,21,13,05,14.50
2009,05,21,13,06,14.40
2009,05,21,13,07,14.30
2009,05,21,13,08,14.20
2009,05,21,13,09,14.20
2009,05,21,13,10,14.20
2009,05,21,13,11,14.30
2009,05,21,13,12,14.40
2009,05,21,13,13,14.50
2009,05,21,13,14,14.60
2009,05,21,13,15,14.70
2009,05,21,13,16,14.70
2009,05,21,13,17,14.70
2009,05,21,13,18,14.70
2009,05,21,13,19,14.70
2009,05,21,13,20,14.80
2009,05,21,13,21,14.90
2009,05,21,13,22,14.90
2009,05,21,13,23,14.80
2009,05,21,13,24,14.70
2009,05,21,13,25,14.50
2009,05,21,13,26,14.40
2009,05,21,13,27,14.30
2009,05,21,13,28,14.20
2009,05,21,13,29,14.30
2009,05,21,13,30,14.30
2009,05,21,13,31,14.40
2009,05,21,13,32,14.50
2009,05,21,13,33,14.50
2009,05,21,13,34,14.40
2009,05,21,13,35,14.30
2009,05,21,13,36,14.20
2009,05,21,13,37,14.20
2009,05,21,13,38,14.20
2009,05,21,13,39,14.20
2009,05,21,13,40,14.30
2009,05,21,13,41,14.40
2009,05,21,13,42,14.50
2009,05,21,13,43,14.60
2009,05,21,13,44,14.70
2009,05,21,13,45,14.70
2009,05,21,13,46,14.80
2009,05,21,13,47,14.80
2009,05,21,13,48,14.90
2009,05,21,13,49,14.80
2009,05,21,13,50,14.80
2009,05,21,13,51,14.80
2009,05,21,13,52,14.80
2009,05,21,13,53,14.80
2009,05,21,13,54,14.80
2009,05,21,13,55,14.90
2009,05,21,13,56,14.90
2009,05,21,13,57,14.90
2009,05,21,13,58,15.00
2009,05,21,13,59,15.00
2009,05,21,14,00,15.00
2009,05,21,14,01,15.00
2009,05,21,14,02,15.00
2009,05,21,14,03,15.00
2009,05,21,14,04,15.00
2009,05,21,14,05,15.00
2009,05,21,14,06,15.00
2009,05,21,14,07,15.00
2009,05,21,14,08,15.10
2009,05,21,14,09,15.00
2009,05,21,14,10,15.00
2009,05,21,14,11,15.10
2009,05,21,14,12,15.20
2009,05,21,14,13,15.20
2009,05,21,14,14,15.30
2009,05,21,14,15,15.40
2009,05,21,14,16,15.50
2009,05,21,14,17,15.60
2009,05,21,14,18,15.70
2009,05,21,14,19,15.80
2009,05,21,14,20,15.80
2009,05,21,14,21,15.90
2009,05,21,14,22,15.80
2009,05,21,14,23,15.70
2009,05,21,14,24,15.70
2009,05,21,14,25,15.70
2009,05,21,14,26,15.80
2009,05,21,14,27,15.90
2009,05,21,14,28,15.90
2009,05,21,14,29,16.00
2009,05,21,14,30,16.00
2009,05,21,14,31,16.10
2009,05,21,14,32,16.20
2009,05,21,14,33,16.10
2009,05,21,14,34,16.00
2009,05,21,14,35,15.90
2009,05,21,14,36,15.80
2009,05,21,14,37,15.70
2009,05,21,14,38,15.70
2009,05,21,14,39,15.70
2009,05,21,14,40,15.70
2009,05,21,14,41,15.80
2009,05,21,14,42,15.80
2009,05,21,14,43,15.80
2009,05,21,14,44,15.80
2009,05,21,14,45,15.90
2009,05,21,14,46,16.00
2009,05,21,14,47,16.10
2009,05,21,14,48,16.10
2009,05,21,14,49,16.20
2009,05,21,14,50,16.20
2009,05,21,14,51,16.30
2009,05,21,14,52,16.40
2009,05,21,14,53,16.50
2009,05,21,14,54,16.50
2009,05,21,14,55,16.50
2009,05,21,14,56,16.40
2009,05,21,14,57,16.30
2009,05,21,14,58,16.30
2009,05,21,14,59,16.30
2009,05,21,15,00,16.20
2009,05,21,15,01,16.20
2009,05,21,15,02,16.30
2009,05,21,15,03,16.30
2009,05,21,15,04,16.40
2009,05,21,15,05,16.50
2009,05,21,15,06,16.50
2009,05,21,15,07,16.60
2009,05,21,15,08,16.70
2009,05,21,15,09,16.70
2009,05,21,15,10,16.70
2009,05,21,15,11,16.60
2009,05,21,15,12,16.60
2009,05,21,15,13,16.60
2009,05,21,15,14,16.50
2009,05,21,15,15,16.50
2009,05,21,15,16,16.50
2009,05,21,15,17,16.50
2009,05,21,15,18,16.50
2009,05,21,15,19,16.50
2009,05,21,15,20,16.50
2009,05,21,15,21,16.50
2009,05,21,15,22,16.40
2009,05,21,15,23,16.40
2009,05,21,15,24,16.30
2009,05,21,15,25,16.20
2009,05,21,15,26,16.10
2009,05,21,15,27,16.00
2009,05,21,15,28,15.80
2009,05,21,15,29,15.80
2009,05,21,15,30,15.70
2009,05,21,15,31,15.80
2009,05,21,15,32,15.90
2009,05,21,15,33,16.00
2009,05,21,15,34,16.20
2009,05,21,15,35,16.30
2009,05,21,15,36,16.40
2009,05,21,15,37,16.50
2009,05,21,15,38,16.50
2009,05,21,15,39,16.40
2009,05,21,15,40,16.20
2009,05,21,15,41,16.20
2009,05,21,15,42,16.20
2009,05,21,15,43,16.20
2009,05,21,15,44,16.20
2009,05,21,15,45,16.20
2009,05,21,15,46,16.20
2009,05,21,15,47,16.10
2009,05,21,15,48,15.90
2009,05,21,15,49,15.80
2009,05,21,15,50,15.80
2009,05,21,15,51,15.80
2009,05,21,15,52,15.80
2009,05,21,15,53,15.90
2009,05,21,15,54,15.90
2009,05,21,15,55,15.90
2009,05,21,15,56,16.00
2009,05,21,15,57,16.10
2009,05,21,15,58,16.20
2009,05,21,15,59,16.30
2009,05,21,16,00,16.30
2009,05,21,16,01,16.20
2009,05,21,16,02,16.20
2009,05,21,16,03,16.20
2009,05,21,16,04,16.20
2009,05,21,16,05,16.30
2009,05,21,16,06,16.40
2009,05,21,16,07,16.60
2009,05,21,16,08,16.70
2009,05,21,16,09,16.70
2009,05,21,16,10,16.80
2009,05,21,16,11,16.80
2009,05,21,16,12,16.70
2009,05,21,16,13,16.70
2009,05,21,16,14,16.70
2009,05,21,16,15,16.70
2009,05,21,16,16,16.70
2009,05,21,16,17,16.50
2009,05,21,16,18,16.30
2009,05,21,16,19,16.30
2009,05,21,16,20,16.20
2009,05,21,16,21,16.20
2009,05,21,16,22,16.30
2009,05,21,16,23,16.40
2009,05,21,16,24,16.50
2009,05,21,16,25,16.60
2009,05,21,16,26,16.60
2009,05,21,16,27,16.70
2009,05,21,16,28,16.80
2009,05,21,16,29,16.90
2009,05,21,16,30,16.90
2009,05,21,16,31,16.90
2009,05,21,16,32,16.90
2009,05,21,16,33,16.60
2009,05,21,16,34,16.40
2009,05,21,16,35,16.30
2009,05,21,16,36,16.30
2009,05,21,16,37,16.30
2009,05,21,16,38,16.30
2009,05,21,16,39,16.30
2009,05,21,16,40,16.30
2009,05,21,16,41,16.30
2009,05,21,16,42,16.40
2009,05,21,16,43,16.40
2009,05,21,16,44,16.30
2009,05,21,16,45,16.30
2009,05,21,16,46,16.30
2009,05,21,16,47,16.30
2009,05,21,16,48,16.20
2009,05,21,16,49,16.20
2009,05,21,16,50,16.00
2009,05,21,16,51,15.90
2009,05,21,16,52,15.90
2009,05,21,16,53,15.90
2009,05,21,16,54,16.00
2009,05,21,16,55,16.10
2009,05,21,16,56,16.20
2009,05,21,16,57,16.30
2009,05,21,16,58,16.50
2009,05,21,16,59,16.50
2009,05,21,17,00,16.40
2009,05,21,17,01,16.20
2009,05,21,17,02,16.20
2009,05,21,17,03,16.20
2009,05,21,17,04,16.10
2009,05,21,17,05,16.00
2009,05,21,17,06,16.00
2009,05,21,17,07,15.90
2009,05,21,17,08,15.90
2009,05,21,17,09,15.80
2009,05,21,17,10,15.90
2009,05,21,17,11,15.90
2009,05,21,17,12,15.90
2009,05,21,17,13,16.00
2009,05,21,17,14,16.10
2009,05,21,17,15,16.20
2009,05,21,17,16,16.20
2009,05,21,17,17,16.30
2009,05,21,17,18,16.30
2009,05,21,17,19,16.30
2009,05,21,17,20,16.20
2009,05,21,17,21,16.20
2009,05,21,17,22,16.20
2009,05,21,17,23,16.20
2009,05,21,17,24,16.30
2009,05,21,17,25,16.30
2009,05,21,17,26,16.40
2009,05,21,17,27,16.50
2009,05,21,17,28,16.50
2009,05,21,17,29,16.50
2009,05,21,17,30,16.40
2009,05,21,17,31,16.40
2009,05,21,17,32,16.40
2009,05,21,17,33,16.30
2009,05,21,17,34,16.20
2009,05,21,17,35,16.20
2009,05,21,17,36,16.10
2009,05,21,17,37,16.10
2009,05,21,17,38,16.10
2009,05,21,17,39,16.10
2009,05,21,17,40,16.20
2009,05,21,17,41,16.20